[[{"header":{"parameterUnit":"m.s-1","parameterCategory":1,"la1":30.2991,"la2":30.254,"lo1":-89.0895,"lo2":-89.0444,"dy":0.0017,"dx":0.0017,"nx":28,"ny":28,"refTime":"2025-06-04T21:00:00:Z","depth":0,"parameterNumber":2,"parameterNumberName":"U-component_of_WINDS"},"data":[0,0,0,0,0,0,0,0,0,0,0,0,0,0,0,0,0,0,0,0,0,0,0,0,0,0,0,0,0,0,0,0,0,0,0,0,0,0,0,0,0,0,0,0,0,0,0,0,0,0,0,0,0,0,0,0,0,0,1.1556,1.1557,0,1.1618,1.1619,1.1619,1.1609,1.1608,1.1607,1.1606,1.1675,1.1678,1.1681,0,0,0,0,0,0,0,0,0,0,0,0,0,1.1437,1.1439,1.1556,1.1557,1.1558,1.1618,1.1619,1.1619,1.1609,1.1608,1.1607,1.1605,1.1674,1.1678,1.1681,0,0,0,0,0,0,0,0,0,0,0,0,0,1.1493,1.144,1.1556,1.156,1.1561,1.1618,1.1619,1.162,1.161,1.1608,1.1606,1.1605,1.1673,1.1677,1.1682,1.1741,0,0,1.1695,1.1696,0,0,0,0,0,0,0,0,1.1489,1.1497,1.1558,1.156,1.1561,1.1604,1.1602,1.166,1.161,1.1591,1.1606,1.1604,1.1653,1.1659,1.1674,1.1744,1.1747,1.1695,1.1698,1.1699,1.1701,0,0,0,0,0,0,0,1.1486,1.1494,1.1581,1.1559,1.1561,1.1561,1.1567,1.1613,1.1631,1.1593,1.1592,1.1599,1.1654,1.167,1.1676,1.1748,1.1695,1.1699,1.1701,1.1703,1.1871,1.1873,0,0,0,0,0,0,1.148,1.1491,1.1579,1.1583,1.152,1.1564,1.1571,1.1592,1.163,1.1634,1.1601,1.1599,1.1664,1.1671,1.1678,1.1751,1.1699,1.1703,1.1706,1.1869,1.1872,1.1874,0,0,0,0,0,0,1.1477,1.1488,1.1576,1.1537,1.1548,1.1568,1.1591,1.1594,1.161,1.1636,1.164,1.1614,1.1663,1.1672,1.1725,1.1754,1.1705,1.1709,1.1867,1.187,1.1873,1.1897,0,0,0,0,0,0,1.1474,1.1487,1.1508,1.1537,1.155,1.162,1.1593,1.1596,1.1617,1.1615,1.165,1.1654,1.1662,1.1719,1.173,1.1759,1.1713,1.1865,1.1868,1.1872,1.1894,1.19,1.1906,0,0,0,0,0,1.147,1.1513,1.1509,1.1519,1.1576,1.1622,1.1629,1.1636,1.1619,1.1642,1.1659,1.1653,1.1749,1.1724,1.1736,1.1767,1.1863,1.1867,1.1872,1.1891,1.1899,1.1906,0,0,0,0,0,0,1.1488,1.1517,1.1512,1.1566,1.1591,1.162,1.1648,1.1644,1.1676,1.1673,1.1683,1.1691,1.1745,1.1761,1.1734,1.1827,1.1804,1.1811,1.1814,1.1822,1.1828,1.1824,1.1716,0,0,0,0,0,1.1498,1.153,1.1554,1.16,1.1612,1.1628,1.1648,1.1651,1.1679,1.169,1.171,1.1739,1.1776,1.18,1.1835,1.1896,1.1905,1.1923,1.1929,1.1934,1.194,1.1976,1.1985,1.1888,1.1888,1.1888,0,0,1.1519,1.1539,1.1559,1.1604,1.1624,1.1659,1.1637,1.1675,1.1703,1.1696,1.1747,1.1764,1.1796,1.1854,1.188,1.1869,1.1969,1.194,1.1943,1.1947,1.1981,1.199,1.1998,1.1891,1.189,1.189,0,0,1.1576,1.1594,1.1634,1.1654,1.1684,1.1695,1.1704,1.1734,1.1744,1.1795,1.1791,1.1825,1.1888,1.1912,1.1932,1.2,1.1997,1.2012,1.2044,1.2078,1.2086,1.2093,1.2118,1.2127,1.2017,1.2017,1.2017,0,1.16,1.1651,1.1656,1.1694,1.1715,1.171,1.1752,1.1772,1.1813,1.1829,1.1815,1.1895,1.1916,1.198,1.1997,1.2013,1.2026,1.2008,1.2084,1.2091,1.2097,1.2122,1.2132,1.2019,1.2019,1.2019,1.2019,0,1.1679,1.1715,1.1745,1.1782,1.1806,1.1847,1.186,1.1884,1.1886,1.1899,1.1952,1.1978,1.2019,1.2034,1.2037,1.21,1.2092,1.2081,1.2058,1.2108,1.2132,1.2141,1.2022,1.2021,1.202,1.202,0,0,1.175,1.179,1.18,1.1818,1.1851,1.188,1.1922,1.196,1.1982,1.2011,1.2047,1.2101,1.2091,1.2115,1.212,1.215,1.2205,1.2136,1.2137,1.2149,1.2278,1.2286,1.2297,1.2202,1.2204,1.2206,1.2275,0,1.1811,1.1881,1.1888,1.1952,1.1987,1.1983,1.2019,1.2045,1.2058,1.2092,1.2107,1.2146,1.2129,1.2144,1.2173,1.2192,1.2231,1.2187,1.2239,1.2241,1.2231,1.2309,1.2318,1.2382,1.2285,1.2286,1.2287,0,1.1892,1.1921,1.1989,1.2018,1.2033,1.2066,1.2102,1.2133,1.2163,1.2171,1.2198,1.2199,1.2245,1.2219,1.2283,1.2253,1.2275,1.2288,1.2291,1.2297,1.2267,1.2318,1.2403,1.2413,1.2302,1.23,1.2299,0,1.1938,1.1995,1.2043,1.2058,1.2094,1.2117,1.2133,1.2161,1.2185,1.2218,1.2233,1.2272,1.2293,1.2324,1.2337,1.2317,1.2401,1.2376,1.2411,1.2411,1.243,1.2429,1.252,1.2442,1.2442,1.2442,1.2442,0,1.2006,1.2048,1.2064,1.2094,1.2142,1.2149,1.2197,1.2213,1.2238,1.2273,1.2273,1.2306,1.232,1.2357,1.2367,1.242,1.243,1.2439,1.2442,1.244,1.2439,1.2455,1.2451,1.2444,1.2444,1.2443,1.2443,0,1.2066,1.2078,1.213,1.2159,1.2168,1.2202,1.2228,1.2259,1.2272,1.2316,1.2327,1.2348,1.2391,1.2407,1.2459,1.2467,1.2528,1.2526,1.2517,1.2518,1.2552,1.2549,1.2658,1.2674,1.2585,1.2585,1.2586,0,1.2109,1.2141,1.2173,1.2195,1.2212,1.2248,1.2272,1.2282,1.2307,1.2344,1.2371,1.2412,1.2446,1.2515,1.2537,1.2578,1.2578,1.2614,1.2585,1.2582,1.2581,1.2579,1.2583,1.2619,1.262,1.2621,1.2622,0,1.2185,1.219,1.2222,1.2258,1.2285,1.2314,1.2342,1.2361,1.2376,1.2404,1.2447,1.2473,1.2526,1.2569,1.2611,1.2631,1.263,1.2631,1.2641,1.264,1.2634,1.2639,1.2533,1.2628,1.2628,1.2627,1.2627,1.2626,1.2239,1.2267,1.2295,1.2332,1.2354,1.238,1.241,1.2427,1.2462,1.2505,1.2509,1.2556,1.2588,1.2644,1.2665,1.2703,1.2694,1.2709,1.2713,1.2717,1.272,1.2627,1.2711,1.2711,1.2711,1.2711,1.271,0,1.2316,1.2333,1.2367,1.2406,1.2436,1.243,1.2461,1.2487,1.2528,1.2556,1.259,1.264,1.2682,1.2707,1.2749,1.2775,1.2776,1.2786,1.2785,1.279,1.2725,1.2712,1.2785,1.2785,1.2785,1.2785,1.2785,1.2785,1.2359,1.2408,1.2416,1.2477,1.2495,1.2539,1.2558,1.2583,1.2606,1.2662,1.2695,1.2711,1.2739,1.2784,1.2823,1.283,1.2846,1.2857,1.2863,1.2802,1.2795,1.2787,1.2775,1.286,1.286,1.2926,1.2926,1.2927]},{"header":{"parameterUnit":"m.s-1","parameterCategory":1,"la1":30.2991,"la2":30.254,"lo1":-89.0895,"lo2":-89.0444,"dy":0.0017,"dx":0.0017,"nx":28,"ny":28,"refTime":"2025-06-04T21:00:00:Z","depth":0,"parameterNumber":3,"parameterNumberName":"V-component_of_WINDS"},"data":[0,0,0,0,0,0,0,0,0,0,0,0,0,0,0,0,0,0,0,0,0,0,0,0,0,0,0,0,0,0,0,0,0,0,0,0,0,0,0,0,0,0,0,0,0,0,0,0,0,0,0,0,0,0,0,0,0,0,1.1875,1.1875,0,1.1919,1.192,1.192,1.1921,1.192,1.192,1.1919,1.1967,1.1969,1.1971,0,0,0,0,0,0,0,0,0,0,0,0,0,1.1792,1.1794,1.1875,1.1875,1.1876,1.1919,1.192,1.192,1.1921,1.192,1.192,1.1919,1.1967,1.1969,1.1971,0,0,0,0,0,0,0,0,0,0,0,0,0,1.1832,1.1794,1.1875,1.1881,1.1882,1.1919,1.192,1.1921,1.1921,1.192,1.192,1.1919,1.1966,1.1968,1.1971,1.2005,0,0,1.1979,1.1981,0,0,0,0,0,0,0,0,1.183,1.1835,1.188,1.1881,1.1882,1.1914,1.1908,1.1949,1.1921,1.1907,1.1919,1.1918,1.195,1.1954,1.1964,1.2007,1.2009,1.198,1.1981,1.1982,1.1983,0,0,0,0,0,0,0,1.1827,1.1833,1.1893,1.1881,1.1882,1.1883,1.1887,1.1916,1.1933,1.1908,1.1908,1.1913,1.1951,1.1962,1.1966,1.201,1.198,1.1982,1.1984,1.1985,1.2083,1.2084,0,0,0,0,0,0,1.1822,1.1831,1.1891,1.1894,1.1853,1.1885,1.189,1.1904,1.1932,1.1936,1.1914,1.1913,1.1958,1.1962,1.1967,1.2009,1.1982,1.1985,1.1987,1.2082,1.2083,1.2084,0,0,0,0,0,0,1.1821,1.1828,1.1889,1.1862,1.187,1.1887,1.1903,1.1906,1.1917,1.1937,1.194,1.1922,1.1957,1.1963,1.1995,1.201,1.1986,1.1989,1.2081,1.2082,1.2083,1.2092,0,0,0,0,0,0,1.1818,1.1827,1.184,1.1863,1.1872,1.1916,1.1904,1.1907,1.1921,1.1921,1.1945,1.1949,1.1957,1.1991,1.1998,1.2014,1.1991,1.2079,1.2081,1.2083,1.209,1.2094,1.2096,0,0,0,0,0,1.1815,1.1841,1.184,1.1848,1.1887,1.1917,1.1922,1.1931,1.1922,1.1936,1.1948,1.1948,1.2008,1.1995,1.2002,1.2019,1.2078,1.2081,1.2083,1.2089,1.2093,1.2096,0,0,0,0,0,0,1.182,1.1844,1.1844,1.1877,1.1895,1.1917,1.1934,1.1934,1.1955,1.1954,1.1964,1.197,1.2002,1.2013,1.1999,1.2053,1.2042,1.2046,1.2044,1.2048,1.2051,1.2048,1.1993,0,0,0,0,0,1.1825,1.1846,1.1866,1.1894,1.1903,1.1917,1.193,1.1935,1.1954,1.1962,1.1977,1.1996,1.2019,1.2034,1.2056,1.2092,1.2098,1.2107,1.211,1.2112,1.2116,1.2136,1.214,1.2091,1.2091,1.2091,0,0,1.1835,1.1851,1.1864,1.1895,1.1909,1.1932,1.1923,1.1947,1.1964,1.1965,1.1996,1.2008,1.203,1.2064,1.208,1.2075,1.213,1.2115,1.2117,1.2119,1.2138,1.2143,1.2147,1.2093,1.2092,1.2092,0,0,1.1866,1.188,1.1904,1.1919,1.194,1.1949,1.1955,1.1977,1.1985,1.2016,1.2017,1.2038,1.2077,1.2093,1.2106,1.2143,1.2143,1.215,1.2165,1.2184,1.2188,1.2192,1.2205,1.221,1.2153,1.2153,1.2153,0,1.1877,1.191,1.1917,1.1941,1.1955,1.1956,1.1982,1.1995,1.2024,1.2033,1.2027,1.2077,1.2092,1.2129,1.2138,1.2149,1.2156,1.2147,1.2187,1.219,1.2194,1.2207,1.2212,1.2153,1.2153,1.2153,1.2153,0,1.1922,1.1945,1.1962,1.1988,1.2004,1.2029,1.204,1.2055,1.2059,1.2069,1.2101,1.2119,1.2145,1.2154,1.2158,1.2192,1.2189,1.2185,1.2174,1.2199,1.2211,1.2216,1.2154,1.2154,1.2154,1.2154,0,0,1.1957,1.1986,1.1993,1.2005,1.2028,1.2047,1.2072,1.2096,1.2109,1.2129,1.215,1.2183,1.218,1.2195,1.22,1.2217,1.2245,1.2211,1.2212,1.2217,1.2285,1.2288,1.2294,1.2245,1.2246,1.2247,1.2283,0,1.199,1.2034,1.2041,1.2079,1.2101,1.2102,1.2124,1.2141,1.2151,1.2172,1.2183,1.2206,1.2199,1.2209,1.2225,1.2238,1.2259,1.2236,1.2267,1.2268,1.2261,1.23,1.2304,1.2337,1.2288,1.2289,1.229,0,1.2035,1.2055,1.2095,1.2116,1.2125,1.2145,1.2168,1.2187,1.2207,1.2213,1.2229,1.2233,1.226,1.2247,1.2284,1.2268,1.2281,1.2289,1.2291,1.2295,1.2281,1.2306,1.2348,1.2354,1.2297,1.2297,1.2296,0,1.2057,1.2094,1.2123,1.2133,1.2158,1.2171,1.2183,1.2201,1.2216,1.2236,1.2246,1.227,1.2283,1.2301,1.2312,1.2301,1.2348,1.2336,1.2355,1.2355,1.2365,1.2365,1.2411,1.2372,1.2372,1.2372,1.2372,0,1.2094,1.2119,1.2133,1.2151,1.2179,1.2187,1.2215,1.2226,1.2242,1.2263,1.2266,1.2285,1.2297,1.2318,1.2327,1.2356,1.2362,1.2369,1.2371,1.2369,1.2368,1.2378,1.2376,1.2374,1.2373,1.2373,1.2373,0,1.2124,1.2134,1.2166,1.2187,1.2192,1.2212,1.223,1.2248,1.2258,1.2284,1.229,1.2306,1.2331,1.2343,1.2374,1.238,1.2414,1.2414,1.2407,1.2408,1.2426,1.2424,1.2481,1.2489,1.2444,1.2445,1.2445,0,1.2147,1.2166,1.2189,1.2202,1.2213,1.2235,1.225,1.2259,1.2274,1.2298,1.2313,1.2338,1.2359,1.2399,1.2414,1.2438,1.2439,1.2457,1.2443,1.244,1.244,1.2439,1.2441,1.246,1.246,1.2461,1.2461,0,1.2187,1.2191,1.2212,1.2234,1.2251,1.2269,1.2287,1.2298,1.231,1.2327,1.2353,1.2369,1.24,1.2426,1.2451,1.2463,1.2465,1.2465,1.2471,1.247,1.2465,1.2469,1.2415,1.2464,1.2464,1.2464,1.2463,1.2463,1.2215,1.2232,1.225,1.2273,1.2287,1.2304,1.2322,1.2333,1.2354,1.238,1.2384,1.2412,1.2431,1.2465,1.2478,1.25,1.2496,1.2504,1.2506,1.2508,1.251,1.2461,1.2505,1.2505,1.2505,1.2505,1.2505,0,1.2255,1.2267,1.2288,1.2313,1.2331,1.2329,1.2349,1.2365,1.2388,1.2406,1.2426,1.2456,1.248,1.2496,1.2521,1.2536,1.2537,1.2542,1.2542,1.2545,1.2512,1.2505,1.2541,1.2541,1.2541,1.2541,1.2541,1.2541,1.2279,1.2308,1.2314,1.235,1.2362,1.2388,1.24,1.2415,1.243,1.2462,1.2482,1.2492,1.251,1.2536,1.2559,1.2563,1.2572,1.2578,1.2582,1.2551,1.2547,1.2543,1.2537,1.2579,1.2579,1.2613,1.2614,1.2614]}]]